Regional Weather Roundup
Issued by NWS

Home | Current Version | Previous Version | Graphics & Text | Print | Product List | Glossary Off
Versions: 1 2 3 4 5 6 7 8 9 10 11 12 13 14 15 16 17 18 19 20 21 22 23 24 25 26 27 28 29 30 31 32 33 34 35 36 37 38 39 40 41 42 43 44 45 46 47 48 49 50

459
ASUS43 KMKX 231700
RWRWI

WISCONSIN REGIONAL WEATHER ROUNDUP
NATIONAL WEATHER SERVICE MILWAUKEE/SULLIVAN WI
1200 PM CDT WED MAY 23 2018

NOTE: "FAIR" INDICATES FEW OR NO CLOUDS BELOW 12,000 FEET WITH NO
SIGNIFICANT WEATHER AND/OR OBSTRUCTIONS TO VISIBILITY.

WIZ001-002-006>008-014>016-023>028-231800-
NORTHWEST WISCONSIN

CITY           SKY/WX    TMP DP  RH WIND       PRES   REMARKS
SUPERIOR ARPT  FAIR      79  58  48 E7        30.11S HX  80
ASHLAND        FAIR      78  56  46 SW6       30.13S
HAYWARD        FAIR      77  58  51 VRB6      30.15S
SIREN          FAIR      78  57  48 SE8       30.14R
CUMBERLAND     FAIR      72  57  60 SE9       30.16R
RICE LAKE      FAIR      75  57  53 SE9       30.17R
CHETEK         FAIR      74  60  61 SE6       30.16S
LADYSMITH      FAIR      74  57  54 CALM      30.18S
EAU CLAIRE     NOT AVBL
MENOMONIE      FAIR      76  61  61 SE9       30.15R
NEW RICHMOND   CLOUDY    73  60  63 S9        30.15R
OSCEOLA        CLOUDY    73  62  67 SW13      30.17R
$$

WIZ003>005-009-010-017-018-231800-
NORTH CENTRAL WISCONSIN

CITY           SKY/WX    TMP DP  RH WIND       PRES   REMARKS
MANITOWISH WTR FAIR      75  55  48 CALM      30.16S
ARBOR VITAE    PTSUNNY   77  57  50 SW5       30.16F
WOODRUFF       PTSUNNY   77  57  50 SW5       30.16F
RHINELANDER    NOT AVBL
EAGLE RIVER    FAIR      76  47  35 SW6       30.16F
LAND O LAKES   PTSUNNY   76  50  39 CALM      30.18S
PHILLIPS       FAIR      74  56  53 S5        30.16S
TOMAHAWK       FAIR      76  56  49 SE5       30.18S
MEDFORD        FAIR      71  55  55 S3        30.18R
MERRILL        PTSUNNY   75  56  51 SW3       30.18S
$$

WIZ029-030-035-036-043>047-231800-
CENTRAL WISCONSIN

CITY           SKY/WX    TMP DP  RH WIND       PRES   REMARKS
WAUSAU         NOT AVBL
MOSINEE        PTSUNNY   73  57  56 S7        30.19S
MARSHFIELD     FAIR      74  60  61 SW7       30.17S
STEVENS POINT  FAIR      73  56  54 E3        30.18S
WAUPACA        FAIR      78  58  48 CALM      30.18S
WAUTOMA        NOT AVBL
WISC RAPIDS    FAIR      73  58  59 W7        30.19R
CAMP DOUGLAS   NOT AVBL
$$

WIZ011>013-019>022-031-037>040-048>050-231800-
NORTHEAST WISCONSIN

CITY           SKY/WX    TMP DP  RH WIND       PRES   REMARKS
ANTIGO         FAIR      74  56  52 S7        30.19S
SHAWANO        FAIR      80  51  37 NE3       30.17R
OCONTO         FAIR      74  58  56 SE7       30.16S
STURGEON BAY   FAIR      73  56  54 NW5       30.18
GREEN BAY      FAIR      77  60  55 CALM      30.17S
MANITOWOC      FAIR      69  59  70 E7        30.18S
APPLETON       MOSUNNY   73  54  49 SW6       30.18S
CLINTONVILLE   FAIR      77  56  49 SE7       30.18R
OSHKOSH        FAIR      74  59  59 S8        30.19R
$$

WIZ032>034-041-042-053>061-231800-
SOUTHWEST WISCONSIN

CITY           SKY/WX    TMP DP  RH WIND       PRES   REMARKS
LA CROSSE      FAIR      76  63  64 S9        30.15S
SPARTA         FAIR      70  59  69 S5        30.18R
VIROQUA        FAIR      72  63  71 S8        30.19R
BOSCOBEL       FAIR      76  63  64 VRB3      30.18S
PRAIRIE DU CHI FAIR      71  61  70 SE5       30.16F
PLATTEVILLE    FAIR      71  65  82 S7        30.20F
$$

WIZ056-057-062-063-064-067-068-231800-
SOUTH CENTRAL WISCONSIN

CITY           SKY/WX    TMP DP  RH WIND       PRES   REMARKS
REEDSBURG      FAIR      72  63  72 S5        30.18S
BARABOO/DELLS  FAIR      72  60  65 SW3       30.19R
LONE ROCK      NOT AVBL
MINERAL POINT  FAIR      72  64  78 S9        30.20S
MADISON        PTSUNNY   74  61  63 S8        30.19R
MIDDLETON      FAIR      74  59  59 SW8       30.20S
WATERTOWN      FAIR      73  60  63 SW5       30.19S
MONROE           N/A     72  59  64 S8        30.20F
JANESVILLE     MOSUNNY   73  59  60 SW10      30.20S
$$

WIZ051-052-058>065-066-070>072-231800-
SOUTHEAST WISCONSIN

CITY           SKY/WX    TMP DP  RH WIND       PRES   REMARKS
MILWAUKEE      FAIR      74  61  63 SE10      30.20S
WAUKESHA       SUNNY     72  52  49 CALM      30.21S
MILWAUKEE/TIMM SUNNY     75  50  41 CALM      30.21R
RACINE         FAIR      71  60  68 SE9       30.22R
BURLINGTON     FAIR      73  56  55 CALM      30.20S
KENOSHA        FAIR      73  56  54 CALM      30.21R
FOND DU LAC    FAIR      73  57  57 S7        30.20R
SHEBOYGAN      FAIR      74  60  61 E8        30.18S
WEST BEND      FAIR      72  55  56 W5        30.20S
JUNEAU         FAIR      70  57  63 CALM      30.20F
$$

LSZ147-162-231800-
LAKE SUPERIOR

STATION/POSITION TIME  TEMP    WIND        PRES    WAVE
                       AIR SEA DIR/SP/G            HT/PER
                 (UTC) (F)     (DEG/KT/KT) (MB)    (FT/S)
W MID LAKE BUOY  1550   43 36  330/  4/  4 1020.9F   0
DEVILS ISLAND    1600   61     240/ 12/ 15 1020.2F
SAXON HARBOR     1630   63      50/  5/  6 1019.6F
$$

LMZ867-665-643>646-231800-
LAKE MICHIGAN

STATION/POSITION TIME  TEMP    WIND        PRES    WAVE
                       AIR SEA DIR/SP/G            HT/PER
                 (UTC) (F)     (DEG/KT/KT) (MB)    (FT/S)
N MID LAKE BUOY  1640   40 38  200/  6/  8 1021.7S
NORTHPORT PIER   1640   53     110/  1/  2 1021.3F
KEWAUNEE LAKESHO 1624   59     130/  4/  6 1021.3
SHEBOYGAN LAKESH 1600   48     160/  7/  8 1022.2F
PORT WASHINGTON  1640   60     180/  8/ 10 1023.4R
ATWATER BUOY     1607   53 50  160/  8/  8 1022.7    0
MILWAUKEE LAKESH 1630   54     120/  7/  8   N/A
S MID LAKE BUOY  1550   41 39  180/  4/  4 1023.7R   0
KENOSHA   LAKESH 1600   60                 1022.4
$$

TC  - TEMPERATURE IN CELSIUS
VSB - VISIBILITY IN STATUTE MILES
WCI - WIND CHILL INDEX
HX  - HEAT INDEX





USA.gov is the U.S. government's official web portal to all federal, state and local government web resources and services.